,,PA_Meas_PMT16A,,PR_Meas_QMR101_102,,RH_Meas_QMH101,,SR_Meas_QMS101,,TA_Meas_QMH101,,GenWind,,GenWind,
time,status,PA,status,PR,status,RH,status,SR,status,TA,status,DirAvg,status,SpdAvg,
2012-03-16, 00:00:04,VALID,919.757,VALID,0,VALID,97.3586,VALID,0,VALID,19.0788,VALID,137,VALID,1.09961,
2012-03-16, 00:01:04,VALID,919.773,VALID,0,VALID,97.351,VALID,0,VALID,19.0579,VALID,153,VALID,0.775391,
2012-03-16, 00:02:04,VALID,919.757,VALID,0,VALID,97.3739,VALID,0,VALID,19.0969,VALID,157,VALID,0.877734,
2012-03-16, 00:03:04,VALID,919.704,VALID,0,VALID,97.3663,VALID,0,VALID,19.0564,VALID,140,VALID,1.70234,
2012-03-16, 00:04:04,VALID,919.65,VALID,0,VALID,97.3434,VALID,0,VALID,19.0983,VALID,152,VALID,1.53516,
2012-03-16, 00:05:04,VALID,919.653,VALID,0,VALID,97.3205,VALID,0,VALID,19.0369,VALID,145,VALID,1.73984,
2012-03-16, 00:06:04,VALID,919.603,VALID,0,VALID,97.3358,VALID,0,VALID,19.0579,VALID,145,VALID,1.22266,
2012-03-16, 00:07:04,VALID,919.608,VALID,0,VALID,97.3129,VALID,0,VALID,19.0593,VALID,145,VALID,1.36836,
2012-03-16, 00:08:04,VALID,919.594,VALID,0,VALID,97.3281,VALID,0,VALID,19.0593,VALID,148,VALID,1.27422,
2012-03-16, 00:09:04,VALID,919.599,VALID,0,VALID,97.2824,VALID,0,VALID,19.0593,VALID,138,VALID,1.44219,
2012-03-16, 00:10:04,VALID,919.599,VALID,0,VALID,97.2824,VALID,0,VALID,19.0189,VALID,132,VALID,1.56992,
2012-03-16, 00:11:04,VALID,919.591,VALID,0,VALID,97.2748,VALID,0,VALID,19.0189,VALID,138,VALID,1.55742,
2012-03-16, 00:12:04,VALID,919.603,VALID,0,VALID,97.229,VALID,0,VALID,18.9994,VALID,124,VALID,1.81992,
2012-03-16, 00:13:04,VALID,919.583,VALID,0,VALID,97.2062,VALID,0,VALID,18.9994,VALID,121,VALID,1.3125,
2012-03-16, 00:14:04,VALID,919.602,VALID,0,VALID,97.1986,VALID,0,VALID,19.0189,VALID,134,VALID,1.46133,
2012-03-16, 00:15:04,VALID,919.572,VALID,0.2,VALID,97.1833,VALID,0,VALID,19.0189,VALID,130,VALID,1.63125,
2012-03-16, 00:16:04,VALID,919.561,VALID,0,VALID,97.1833,VALID,0,VALID,19.0189,VALID,113,VALID,1.14453,
2012-03-16, 00:17:04,VALID,919.511,VALID,0,VALID,97.1986,VALID,0,VALID,18.9785,VALID,116,VALID,1.52148,
2012-03-16, 00:18:04,VALID,919.495,VALID,0,VALID,97.2062,VALID,0,VALID,18.9799,VALID,123,VALID,1.18477,
2012-03-16, 00:19:04,VALID,919.466,VALID,0,VALID,97.1909,VALID,0,VALID,18.9799,VALID,113,VALID,1.75234,
2012-03-16, 00:20:04,VALID,919.446,VALID,0,VALID,97.1833,VALID,0,VALID,18.9604,VALID,129,VALID,0.801953,
2012-03-16, 00:21:04,VALID,919.391,VALID,0,VALID,97.1757,VALID,0,VALID,18.9799,VALID,104,VALID,1.17148,
2012-03-16, 00:22:04,VALID,919.331,VALID,0,VALID,97.1681,VALID,0,VALID,18.9604,VALID,113,VALID,1.21016,
2012-03-16, 00:23:04,VALID,919.322,VALID,0,VALID,97.1757,VALID,0,VALID,18.9409,VALID,114,VALID,1.27109,
2012-03-16, 00:24:04,VALID,919.304,VALID,0,VALID,97.1223,VALID,0,VALID,18.9214,VALID,133,VALID,1.31523,
2012-03-16, 00:25:04,VALID,919.272,VALID,0,VALID,97.1299,VALID,0,VALID,18.9828,VALID,118,VALID,1.78398,
2012-03-16, 00:26:04,VALID,919.246,VALID,0,VALID,97.1376,VALID,0,VALID,18.9019,VALID,140,VALID,1.46484,
2012-03-16, 00:27:04,VALID,919.205,VALID,0,VALID,97.1452,VALID,0,VALID,18.9214,VALID,144,VALID,1.43672,
2012-03-16, 00:28:04,VALID,919.203,VALID,0,VALID,97.1452,VALID,0,VALID,18.9438,VALID,133,VALID,1.45625,
2012-03-16, 00:29:04,VALID,919.169,VALID,0,VALID,97.1147,VALID,0,VALID,18.9005,VALID,142,VALID,0.932031,
2012-03-16, 00:30:04,VALID,919.15,VALID,0,VALID,97.1528,VALID,0,VALID,18.9019,VALID,125,VALID,1.26016,
2012-03-16, 00:31:04,VALID,919.131,VALID,0,VALID,97.1299,VALID,0,VALID,18.9229,VALID,146,VALID,1.33008,
2012-03-16, 00:32:04,VALID,919.109,VALID,0,VALID,97.1452,VALID,0,VALID,18.9034,VALID,161,VALID,1.60078,
2012-03-16, 00:33:04,VALID,919.097,VALID,0,VALID,97.1223,VALID,0,VALID,18.9424,VALID,149,VALID,1.18125,
2012-03-16, 00:34:04,VALID,919.058,VALID,0,VALID,97.1376,VALID,0,VALID,18.9438,VALID,148,VALID,1.27031,
2012-03-16, 00:35:04,VALID,919.031,VALID,0,VALID,97.1223,VALID,0,VALID,18.9229,VALID,162,VALID,1.74844,
2012-03-16, 00:36:04,VALID,918.98,VALID,0,VALID,97.1604,VALID,0,VALID,18.9019,VALID,158,VALID,1.51875,
2012-03-16, 00:37:04,VALID,918.979,VALID,0,VALID,97.1681,VALID,0,VALID,18.9019,VALID,164,VALID,1.14102,
2012-03-16, 00:38:04,VALID,918.992,VALID,0,VALID,97.1757,VALID,0,VALID,18.9019,VALID,158,VALID,0.923047,
2012-03-16, 00:39:04,VALID,918.957,VALID,0,VALID,97.1299,VALID,0,VALID,18.9229,VALID,138,VALID,1.57344,
2012-03-16, 00:40:04,VALID,918.926,VALID,0,VALID,97.1223,VALID,0,VALID,18.9019,VALID,136,VALID,1.82227,
2012-03-16, 00:41:04,VALID,918.928,VALID,0,VALID,97.1223,VALID,0,VALID,18.9229,VALID,146,VALID,0.623828,
2012-03-16, 00:42:04,VALID,918.932,VALID,0,VALID,97.0994,VALID,0,VALID,18.8824,VALID,138,VALID,1.39688,
2012-03-16, 00:43:04,VALID,918.886,VALID,0,VALID,97.0613,VALID,0,VALID,18.8824,VALID,159,VALID,1.01641,
2012-03-16, 00:44:04,VALID,918.881,VALID,0,VALID,97.0308,VALID,0,VALID,18.8824,VALID,163,VALID,1.38516,
2012-03-16, 00:45:04,VALID,918.866,VALID,0,VALID,97.069,VALID,0,VALID,18.9229,VALID,180,VALID,0.274219,
2012-03-16, 00:46:04,VALID,918.85,VALID,0,VALID,97.0461,VALID,0,VALID,18.8824,VALID,157,VALID,0.802734,
2012-03-16, 00:47:04,VALID,918.82,VALID,0,VALID,97.0385,VALID,0,VALID,18.842,VALID,155,VALID,1.0543,
2012-03-16, 00:48:04,VALID,918.793,VALID,0,VALID,97.0232,VALID,0,VALID,18.8434,VALID,155,VALID,0.894531,
2012-03-16, 00:49:04,VALID,918.758,VALID,0,VALID,96.9927,VALID,0,VALID,18.824,VALID,151,VALID,0.813672,
2012-03-16, 00:50:04,VALID,918.707,VALID,0,VALID,96.9775,VALID,0,VALID,18.824,VALID,139,VALID,1.18594,
2012-03-16, 00:51:04,VALID,918.674,VALID,0,VALID,96.9622,VALID,0,VALID,18.8434,VALID,138,VALID,1.38594,
2012-03-16, 00:52:04,VALID,918.652,VALID,0,VALID,96.9546,VALID,0,VALID,18.8839,VALID,145,VALID,0.897656,
2012-03-16, 00:53:04,VALID,918.653,VALID,0,VALID,96.9241,VALID,0,VALID,18.8839,VALID,158,VALID,0.588281,
2012-03-16, 00:54:04,VALID,918.649,VALID,0,VALID,96.9012,VALID,0,VALID,18.9034,VALID,154,VALID,1.31016,
2012-03-16, 00:55:04,VALID,918.64,VALID,0,VALID,96.9165,VALID,0,VALID,18.8824,VALID,164,VALID,0.64375,
2012-03-16, 00:56:04,VALID,918.668,VALID,0,VALID,96.9012,VALID,0,VALID,18.8824,VALID,183,VALID,0.824609,
2012-03-16, 00:57:04,VALID,918.663,VALID,0,VALID,96.8784,VALID,0,VALID,18.9019,VALID,168,VALID,0.951172,
2012-03-16, 00:58:04,VALID,918.712,VALID,0,VALID,96.8936,VALID,0,VALID,18.9229,VALID,167,VALID,0.892578,
2012-03-16, 00:59:04,VALID,918.685,VALID,0,VALID,96.8555,VALID,0,VALID,18.9214,VALID,167,VALID,1.1625,
2012-03-16, 01:00:04,VALID,918.658,VALID,0,VALID,96.8326,VALID,0,VALID,18.8839,VALID,136,VALID,0.835156,
2012-03-16, 01:01:05,VALID,918.657,VALID,0,VALID,96.8479,VALID,0,VALID,18.842,VALID,160,VALID,0.973047,
2012-03-16, 01:02:05,VALID,918.629,VALID,0,VALID,96.825,VALID,0,VALID,18.9034,VALID,154,VALID,1.34219,
2012-03-16, 01:03:05,VALID,918.627,VALID,0,VALID,96.7945,VALID,0,VALID,18.8839,VALID,135,VALID,1.06094,
2012-03-16, 01:04:05,VALID,918.614,VALID,0,VALID,96.764,VALID,0,VALID,18.8839,VALID,141,VALID,1.25273,
2012-03-16, 01:05:05,VALID,918.618,VALID,0,VALID,96.8098,VALID,0,VALID,18.8839,VALID,140,VALID,0.513672,
2012-03-16, 01:06:05,VALID,918.647,VALID,0,VALID,96.8403,VALID,0,VALID,18.8629,VALID,140,VALID,0.542969,
2012-03-16, 01:07:05,VALID,918.636,VALID,0,VALID,96.7869,VALID,0,VALID,18.8434,VALID,140,VALID,1.00039,
2012-03-16, 01:08:05,VALID,918.627,VALID,0,VALID,96.7716,VALID,0,VALID,18.8434,VALID,140,VALID,0.621875,
2012-03-16, 01:09:05,VALID,918.625,VALID,0,VALID,96.7869,VALID,0,VALID,18.8449,VALID,140,VALID,0.813672,
2012-03-16, 01:10:05,VALID,918.628,VALID,0,VALID,96.764,VALID,0,VALID,18.8449,VALID,140,VALID,0.794141,
2012-03-16, 01:11:05,VALID,918.639,VALID,0,VALID,96.7716,VALID,0,VALID,18.8045,VALID,140,VALID,0.746484,
2012-03-16, 01:12:05,VALID,918.633,VALID,0,VALID,96.764,VALID,0,VALID,18.8045,VALID,140,VALID,0.558594,
2012-03-16, 01:13:05,VALID,918.564,VALID,0,VALID,96.8098,VALID,0,VALID,18.785,VALID,140,VALID,0.858203,
2012-03-16, 01:14:05,VALID,918.602,VALID,0,VALID,96.825,VALID,0,VALID,18.7655,VALID,134,VALID,0.746875,
2012-03-16, 01:15:05,VALID,918.58,VALID,0,VALID,96.8098,VALID,0,VALID,18.7864,VALID,88,VALID,1.1457,
2012-03-16, 01:16:05,VALID,918.551,VALID,0,VALID,96.8326,VALID,0,VALID,18.7669,VALID,58,VALID,1.28359,
2012-03-16, 01:17:05,VALID,918.546,VALID,0,VALID,96.8707,VALID,0,VALID,18.7265,VALID,58,VALID,1.27383,
2012-03-16, 01:18:05,VALID,918.503,VALID,0,VALID,96.886,VALID,0,VALID,18.7279,VALID,58,VALID,1.37695,
2012-03-16, 01:19:05,VALID,918.491,VALID,0,VALID,96.9317,VALID,0,VALID,18.6875,VALID,58,VALID,1.13359,
2012-03-16, 01:20:05,VALID,918.461,VALID,0,VALID,96.9851,VALID,0,VALID,18.6875,VALID,58,VALID,0.853906,
2012-03-16, 01:21:05,VALID,918.464,VALID,0,VALID,97.0232,VALID,0,VALID,18.668,VALID,58,VALID,1.12383,
2012-03-16, 01:22:05,VALID,918.45,VALID,0,VALID,97.0613,VALID,0,VALID,18.7084,VALID,58,VALID,0.612891,
2012-03-16, 01:23:05,VALID,918.44,VALID,0,VALID,97.0461,VALID,0,VALID,18.6889,VALID,58,VALID,0.837891,
2012-03-16, 01:24:05,VALID,918.43,VALID,0,VALID,97.0613,VALID,0,VALID,18.668,VALID,58,VALID,0.879297,
2012-03-16, 01:25:05,VALID,918.421,VALID,0,VALID,97.1299,VALID,0,VALID,18.668,VALID,58,VALID,0.823828,
2012-03-16, 01:26:05,VALID,918.418,VALID,0,VALID,96.9775,VALID,0,VALID,18.6095,VALID,58,VALID,1.08633,
2012-03-16, 01:27:05,VALID,918.391,VALID,0,VALID,96.9927,VALID,0,VALID,18.5511,VALID,58,VALID,1.02773,
2012-03-16, 01:28:05,VALID,918.38,VALID,0,VALID,96.9927,VALID,0,VALID,18.5121,VALID,58,VALID,1.01133,
2012-03-16, 01:29:05,VALID,918.378,VALID,0,VALID,97.008,VALID,0,VALID,18.4536,VALID,58,VALID,0.814062,
2012-03-16, 01:30:05,VALID,918.329,VALID,0,VALID,97.0156,VALID,0,VALID,18.4341,VALID,58,VALID,1.01602,
2012-03-16, 01:31:05,VALID,918.335,VALID,0,VALID,97.1071,VALID,0,VALID,18.4341,VALID,58,VALID,0.892969,
2012-03-16, 01:32:05,VALID,918.28,VALID,0,VALID,97.0766,VALID,0,VALID,18.3965,VALID,58,VALID,0.985156,
2012-03-16, 01:33:05,VALID,918.301,VALID,0,VALID,97.0842,VALID,0,VALID,18.3561,VALID,58,VALID,0.648047,
2012-03-16, 01:34:05,VALID,918.246,VALID,0,VALID,97.0613,VALID,0,VALID,18.3366,VALID,58,VALID,0.732031,
2012-03-16, 01:35:05,VALID,918.244,VALID,0,VALID,97.0994,VALID,0,VALID,18.2977,VALID,58,VALID,0.863281,
2012-03-16, 01:36:05,VALID,918.216,VALID,0,VALID,97.1071,VALID,0,VALID,18.2977,VALID,58,VALID,0.802344,
2012-03-16, 01:37:05,VALID,918.185,VALID,0,VALID,97.1147,VALID,0,VALID,18.2782,VALID,88,VALID,1.13516,
2012-03-16, 01:38:05,VALID,918.179,VALID,0,VALID,97.0994,VALID,0,VALID,18.2796,VALID,91,VALID,1.17188,
2012-03-16, 01:39:05,VALID,918.213,VALID,0,VALID,97.1071,VALID,0,VALID,18.2392,VALID,91,VALID,0.869531,
2012-03-16, 01:40:05,VALID,918.181,VALID,0,VALID,97.1376,VALID,0,VALID,18.2587,VALID,91,VALID,0.890625,
2012-03-16, 01:41:05,VALID,918.204,VALID,0,VALID,97.1071,VALID,0,VALID,18.2392,VALID,91,VALID,0.982422,
2012-03-16, 01:42:05,VALID,918.186,VALID,0,VALID,97.1452,VALID,0,VALID,18.2392,VALID,91,VALID,0.714844,
2012-03-16, 01:43:05,VALID,918.186,VALID,0,VALID,97.0994,VALID,0,VALID,18.2406,VALID,91,VALID,0.916797,
2012-03-16, 01:44:05,VALID,918.199,VALID,0,VALID,97.1223,VALID,0,VALID,18.2002,VALID,84,VALID,0.864062,
2012-03-16, 01:45:05,VALID,918.163,VALID,0,VALID,97.0232,VALID,0,VALID,18.2002,VALID,75,VALID,1.36172,
2012-03-16, 01:46:05,VALID,918.14,VALID,0,VALID,96.9927,VALID,0,VALID,18.2002,VALID,70,VALID,0.900391,
2012-03-16, 01:47:05,VALID,918.086,VALID,0,VALID,97.0232,VALID,0,VALID,18.2002,VALID,70,VALID,0.870313,
2012-03-16, 01:48:05,VALID,918.087,VALID,0,VALID,96.9241,VALID,0,VALID,18.1807,VALID,93,VALID,0.853906,
2012-03-16, 01:49:05,VALID,918.112,VALID,0,VALID,96.8707,VALID,0,VALID,18.1612,VALID,100,VALID,0.81875,
2012-03-16, 01:50:05,VALID,918.076,VALID,0,VALID,96.8403,VALID,0,VALID,18.1417,VALID,100,VALID,0.637109,
2012-03-16, 01:51:05,VALID,918.073,VALID,0,VALID,96.825,VALID,0,VALID,18.1612,VALID,100,VALID,0.714844,
2012-03-16, 01:52:05,VALID,918.051,VALID,0,VALID,96.8631,VALID,0,VALID,18.1821,VALID,100,VALID,0.748047,
2012-03-16, 01:53:05,VALID,918.04,VALID,0,VALID,96.8707,VALID,0,VALID,18.1626,VALID,100,VALID,0.878516,
2012-03-16, 01:54:05,VALID,918.02,VALID,0,VALID,96.886,VALID,0,VALID,18.1821,VALID,100,VALID,0.763281,
2012-03-16, 01:55:05,VALID,917.958,VALID,0,VALID,96.8784,VALID,0,VALID,18.1821,VALID,100,VALID,0.850391,
2012-03-16, 01:56:05,VALID,917.951,VALID,0,VALID,96.8555,VALID,0,VALID,18.1612,VALID,100,VALID,0.853516,
2012-03-16, 01:57:05,VALID,917.91,VALID,0,VALID,96.8326,VALID,0,VALID,18.1807,VALID,100,VALID,1.17422,
2012-03-16, 01:58:05,VALID,917.875,VALID,0,VALID,96.8403,VALID,0,VALID,18.1612,VALID,100,VALID,1.04414,
2012-03-16, 01:59:05,VALID,917.853,VALID,0,VALID,96.764,VALID,0,VALID,18.1626,VALID,103,VALID,1.39492,
2012-03-16, 02:00:05,VALID,917.841,VALID,0,VALID,96.6878,VALID,0,VALID,18.1626,VALID,101,VALID,1.41914,
2012-03-16, 02:01:05,VALID,917.852,VALID,0,VALID,96.6192,VALID,0,VALID,18.1209,VALID,101,VALID,0.846484,
2012-03-16, 02:02:05,VALID,917.833,VALID,0,VALID,96.5734,VALID,0,VALID,18.1821,VALID,101,VALID,0.910156,
2012-03-16, 02:03:05,VALID,917.8,VALID,0,VALID,96.5658,VALID,0,VALID,18.1807,VALID,101,VALID,0.440625,
2012-03-16, 02:04:05,VALID,917.774,VALID,0,VALID,96.5506,VALID,0,VALID,18.2002,VALID,101,VALID,0.497266,
2012-03-16, 02:05:05,VALID,917.765,VALID,0,VALID,96.6115,VALID,0,VALID,18.2002,VALID,101,VALID,0.768359,
2012-03-16, 02:06:05,VALID,917.771,VALID,0,VALID,96.6649,VALID,0,VALID,18.2211,VALID,130,VALID,1.01406,
2012-03-16, 02:07:05,VALID,917.74,VALID,0,VALID,96.7183,VALID,0,VALID,18.2587,VALID,130,VALID,0.760156,
2012-03-16, 02:08:05,VALID,917.714,VALID,0,VALID,96.7869,VALID,0,VALID,18.3185,VALID,130,VALID,0.662109,
2012-03-16, 02:09:05,VALID,917.691,VALID,0,VALID,96.886,VALID,0,VALID,18.3575,VALID,130,VALID,0.435547,
2012-03-16, 02:10:05,VALID,917.648,VALID,0,VALID,96.9775,VALID,0,VALID,18.4146,VALID,130,VALID,1.05703,
2012-03-16, 02:11:05,VALID,917.604,VALID,0,VALID,97.0232,VALID,0,VALID,18.455,VALID,130,VALID,1.02266,
2012-03-16, 02:12:05,VALID,917.573,VALID,0,VALID,97.0461,VALID,0,VALID,18.494,VALID,145,VALID,1.38516,
2012-03-16, 02:13:05,VALID,917.591,VALID,0,VALID,97.0918,VALID,0,VALID,18.5135,VALID,155,VALID,1.21133,
2012-03-16, 02:14:05,VALID,917.587,VALID,0,VALID,97.0994,VALID,0,VALID,18.5121,VALID,155,VALID,1.00156,
2012-03-16, 02:15:05,VALID,917.611,VALID,0,VALID,97.0994,VALID,0,VALID,18.5121,VALID,153,VALID,0.873047,
2012-03-16, 02:16:05,VALID,917.628,VALID,0,VALID,97.1376,VALID,0,VALID,18.533,VALID,166,VALID,1.03594,
2012-03-16, 02:17:05,VALID,917.648,VALID,0.2,VALID,97.1147,VALID,0,VALID,18.533,VALID,169,VALID,1.69961,
2012-03-16, 02:18:05,VALID,917.643,VALID,0,VALID,97.1223,VALID,0,VALID,18.5135,VALID,149,VALID,1.21992,
2012-03-16, 02:19:05,VALID,917.65,VALID,0,VALID,97.1452,VALID,0,VALID,18.494,VALID,168,VALID,1.23867,
2012-03-16, 02:20:05,VALID,917.665,VALID,0,VALID,97.1299,VALID,0,VALID,18.494,VALID,152,VALID,0.981641,
2012-03-16, 02:21:05,VALID,917.67,VALID,0,VALID,97.1299,VALID,0,VALID,18.4745,VALID,145,VALID,1.13086,
2012-03-16, 02:22:05,VALID,917.619,VALID,0,VALID,97.1223,VALID,0,VALID,18.4536,VALID,137,VALID,1.17734,
2012-03-16, 02:23:05,VALID,917.557,VALID,0,VALID,97.1147,VALID,0,VALID,18.4341,VALID,147,VALID,1.12344,
2012-03-16, 02:24:05,VALID,917.526,VALID,0,VALID,97.1223,VALID,0,VALID,18.4536,VALID,144,VALID,1.12266,
2012-03-16, 02:25:05,VALID,917.48,VALID,0,VALID,97.1147,VALID,0,VALID,18.4731,VALID,130,VALID,1.16289,
2012-03-16, 02:26:05,VALID,917.435,VALID,0,VALID,97.0918,VALID,0,VALID,18.455,VALID,127,VALID,1.28047,
2012-03-16, 02:27:05,VALID,917.43,VALID,0,VALID,97.0994,VALID,0,VALID,18.4536,VALID,131,VALID,1.11016,
2012-03-16, 02:28:05,VALID,917.434,VALID,0,VALID,97.1071,VALID,0,VALID,18.4341,VALID,140,VALID,0.878906,
2012-03-16, 02:29:05,VALID,917.394,VALID,0,VALID,97.1223,VALID,0,VALID,18.4341,VALID,158,VALID,1.21172,
2012-03-16, 02:30:05,VALID,917.363,VALID,0,VALID,97.0385,VALID,0,VALID,18.4355,VALID,155,VALID,1.27891,
2012-03-16, 02:31:05,VALID,917.382,VALID,0,VALID,97.0461,VALID,0,VALID,18.4355,VALID,137,VALID,1.5918,
2012-03-16, 02:32:05,VALID,917.388,VALID,0,VALID,97.0766,VALID,0,VALID,18.416,VALID,155,VALID,1.64609,
2012-03-16, 02:33:05,VALID,917.371,VALID,0,VALID,97.069,VALID,0,VALID,18.3951,VALID,164,VALID,1.35391,
2012-03-16, 02:34:05,VALID,917.38,VALID,0,VALID,97.0537,VALID,0,VALID,18.3965,VALID,160,VALID,1.47266,
2012-03-16, 02:35:05,VALID,917.352,VALID,0,VALID,97.0537,VALID,0,VALID,18.3965,VALID,158,VALID,1.86328,
2012-03-16, 02:36:05,VALID,917.368,VALID,0,VALID,97.0537,VALID,0,VALID,18.3965,VALID,156,VALID,2.37227,
2012-03-16, 02:37:05,VALID,917.348,VALID,0,VALID,97.0461,VALID,0,VALID,18.3756,VALID,144,VALID,2.17031,
2012-03-16, 02:38:05,VALID,917.322,VALID,0,VALID,97.0461,VALID,0,VALID,18.3951,VALID,146,VALID,1.39492,
2012-03-16, 02:39:05,VALID,917.329,VALID,0,VALID,97.069,VALID,0,VALID,18.3965,VALID,154,VALID,1.09336,
2012-03-16, 02:40:05,VALID,917.332,VALID,0,VALID,97.0461,VALID,0,VALID,18.3965,VALID,150,VALID,1.14805,
2012-03-16, 02:41:05,VALID,917.324,VALID,0,VALID,97.0613,VALID,0,VALID,18.3965,VALID,152,VALID,1.49805,
2012-03-16, 02:42:05,VALID,917.307,VALID,0,VALID,97.0918,VALID,0,VALID,18.3951,VALID,167,VALID,0.8375,
2012-03-16, 02:43:05,VALID,917.278,VALID,0,VALID,97.0918,VALID,0,VALID,18.3951,VALID,157,VALID,1.12852,
2012-03-16, 02:44:05,VALID,917.271,VALID,0,VALID,97.0613,VALID,0,VALID,18.4369,VALID,161,VALID,1.20195,
2012-03-16, 02:45:05,VALID,917.234,VALID,0,VALID,97.0613,VALID,0,VALID,18.3951,VALID,157,VALID,1.43711,
2012-03-16, 02:46:05,VALID,917.231,VALID,0,VALID,97.0537,VALID,0,VALID,18.416,VALID,164,VALID,1.32187,
2012-03-16, 02:47:05,VALID,917.237,VALID,0,VALID,97.0537,VALID,0,VALID,18.416,VALID,144,VALID,1.16523,
2012-03-16, 02:48:05,VALID,917.216,VALID,0,VALID,97.0003,VALID,0,VALID,18.3561,VALID,143,VALID,1.98438,
2012-03-16, 02:49:05,VALID,917.202,VALID,0,VALID,97.0156,VALID,0,VALID,18.3965,VALID,165,VALID,1.01016,
2012-03-16, 02:50:05,VALID,917.169,VALID,0,VALID,97.0156,VALID,0,VALID,18.3951,VALID,157,VALID,1.18789,
2012-03-16, 02:51:05,VALID,917.159,VALID,0,VALID,97.008,VALID,0,VALID,18.416,VALID,151,VALID,1.41016,
2012-03-16, 02:52:05,VALID,917.147,VALID,0,VALID,96.9851,VALID,0,VALID,18.3965,VALID,165,VALID,2.45352,
2012-03-16, 02:53:05,VALID,917.138,VALID,0,VALID,96.9698,VALID,0,VALID,18.3965,VALID,160,VALID,1.72852,
2012-03-16, 02:54:05,VALID,917.143,VALID,0,VALID,96.9851,VALID,0,VALID,18.3965,VALID,168,VALID,1.24688,
2012-03-16, 02:55:05,VALID,917.093,VALID,0,VALID,96.8936,VALID,0,VALID,18.3979,VALID,153,VALID,1.4707,
2012-03-16, 02:56:05,VALID,917.092,VALID,0,VALID,96.9165,VALID,0,VALID,18.377,VALID,144,VALID,1.09141,
2012-03-16, 02:57:05,VALID,917.08,VALID,0,VALID,96.8784,VALID,0,VALID,18.3965,VALID,163,VALID,0.664453,
2012-03-16, 02:58:05,VALID,917.064,VALID,0,VALID,96.8784,VALID,0,VALID,18.377,VALID,148,VALID,0.657031,
2012-03-16, 02:59:05,VALID,917.088,VALID,0,VALID,96.8479,VALID,0,VALID,18.3366,VALID,157,VALID,1.17773,
2012-03-16, 03:00:05,VALID,917.117,VALID,0,VALID,96.8326,VALID,0,VALID,18.3366,VALID,170,VALID,0.571094,
2012-03-16, 03:01:05,VALID,917.101,VALID,0,VALID,96.7869,VALID,0,VALID,18.338,VALID,145,VALID,1.36992,
2012-03-16, 03:02:05,VALID,917.102,VALID,0,VALID,96.7945,VALID,0,VALID,18.3575,VALID,148,VALID,1.07109,
2012-03-16, 03:03:05,VALID,917.052,VALID,0,VALID,96.8021,VALID,0,VALID,18.3172,VALID,148,VALID,0.5875,
2012-03-16, 03:04:05,VALID,917.04,VALID,0,VALID,96.7716,VALID,0,VALID,18.2977,VALID,137,VALID,1.6082,
2012-03-16, 03:05:05,VALID,917.022,VALID,0,VALID,96.7411,VALID,0,VALID,18.2782,VALID,122,VALID,1.34023,
2012-03-16, 03:06:05,VALID,917.003,VALID,0,VALID,96.7107,VALID,0,VALID,18.299,VALID,122,VALID,1.21797,
2012-03-16, 03:07:05,VALID,916.982,VALID,0,VALID,96.7335,VALID,0,VALID,18.2796,VALID,122,VALID,0.677344,
2012-03-16, 03:08:05,VALID,916.967,VALID,0,VALID,96.7793,VALID,0,VALID,18.2392,VALID,123,VALID,0.790234,
2012-03-16, 03:09:05,VALID,916.969,VALID,0,VALID,96.764,VALID,0,VALID,18.2406,VALID,123,VALID,0.507813,
2012-03-16, 03:10:05,VALID,916.95,VALID,0,VALID,96.7335,VALID,0,VALID,18.2406,VALID,123,VALID,1.13516,
2012-03-16, 03:11:05,VALID,916.915,VALID,0,VALID,96.7488,VALID,0,VALID,18.2002,VALID,123,VALID,0.576563,
2012-03-16, 03:12:05,VALID,916.885,VALID,0,VALID,96.703,VALID,0,VALID,18.1821,VALID,123,VALID,0.894922,
2012-03-16, 03:13:05,VALID,916.864,VALID,0,VALID,96.7488,VALID,0,VALID,18.1807,VALID,123,VALID,0.912891,
2012-03-16, 03:14:05,VALID,916.849,VALID,0,VALID,96.7716,VALID,0,VALID,18.1417,VALID,123,VALID,0.769531,
2012-03-16, 03:15:05,VALID,916.818,VALID,0,VALID,96.7411,VALID,0,VALID,18.1431,VALID,123,VALID,0.807422,
2012-03-16, 03:16:05,VALID,916.808,VALID,0,VALID,96.7335,VALID,0,VALID,18.1431,VALID,123,VALID,1.16719,
2012-03-16, 03:17:05,VALID,916.79,VALID,0,VALID,96.703,VALID,0,VALID,18.1222,VALID,123,VALID,1.18438,
2012-03-16, 03:18:05,VALID,916.812,VALID,0,VALID,96.703,VALID,0,VALID,18.1417,VALID,123,VALID,0.967969,
2012-03-16, 03:19:05,VALID,916.785,VALID,0,VALID,96.6954,VALID,0,VALID,18.1222,VALID,130,VALID,0.988281,
2012-03-16, 03:20:05,VALID,916.809,VALID,0,VALID,96.7335,VALID,0,VALID,18.1222,VALID,143,VALID,0.869531,
2012-03-16, 03:21:05,VALID,916.817,VALID,0,VALID,96.6954,VALID,0,VALID,18.1431,VALID,142,VALID,1.25195,
2012-03-16, 03:22:05,VALID,916.833,VALID,0,VALID,96.6725,VALID,0,VALID,18.1417,VALID,142,VALID,0.896094,
2012-03-16, 03:23:05,VALID,916.849,VALID,0,VALID,96.6878,VALID,0,VALID,18.1222,VALID,142,VALID,1.04531,
2012-03-16, 03:24:05,VALID,916.812,VALID,0,VALID,96.6802,VALID,0.107441,VALID,18.1209,VALID,142,VALID,1.16367,
2012-03-16, 03:25:05,VALID,916.787,VALID,0,VALID,96.6725,VALID,0.107441,VALID,18.1417,VALID,142,VALID,1.15117,
2012-03-16, 03:26:05,VALID,916.762,VALID,0,VALID,96.6878,VALID,0,VALID,18.1417,VALID,124,VALID,1.02148,
2012-03-16, 03:27:05,VALID,916.778,VALID,0,VALID,96.703,VALID,0,VALID,18.1222,VALID,139,VALID,1.1918,
2012-03-16, 03:28:05,VALID,916.758,VALID,0,VALID,96.6954,VALID,0,VALID,18.1209,VALID,139,VALID,1.18438,
2012-03-16, 03:29:05,VALID,916.784,VALID,0,VALID,96.703,VALID,0,VALID,18.1417,VALID,124,VALID,1.18711,
2012-03-16, 03:30:05,VALID,916.793,VALID,0,VALID,96.7411,VALID,0.107441,VALID,18.1222,VALID,124,VALID,0.305078,
2012-03-16, 03:31:05,VALID,916.783,VALID,0,VALID,96.7793,VALID,0.107441,VALID,18.1014,VALID,124,VALID,0.292188,
2012-03-16, 03:32:05,VALID,916.798,VALID,0,VALID,96.7869,VALID,0.107441,VALID,18.1222,VALID,124,VALID,0.203906,
2012-03-16, 03:33:05,VALID,916.791,VALID,0,VALID,96.825,VALID,0.107441,VALID,18.1014,VALID,124,VALID,0.365625,
2012-03-16, 03:34:05,VALID,916.808,VALID,0,VALID,96.8403,VALID,0,VALID,18.1417,VALID,124,VALID,0.610156,
2012-03-16, 03:35:05,VALID,916.773,VALID,0,VALID,96.825,VALID,0.107441,VALID,18.0819,VALID,124,VALID,0.751562,
2012-03-16, 03:36:05,VALID,916.745,VALID,0,VALID,96.7869,VALID,0.107441,VALID,18.0833,VALID,124,VALID,0.731641,
2012-03-16, 03:37:05,VALID,916.714,VALID,0,VALID,96.7716,VALID,0,VALID,18.0624,VALID,124,VALID,1.09687,
2012-03-16, 03:38:05,VALID,916.685,VALID,0,VALID,96.825,VALID,0,VALID,18.0651,VALID,124,VALID,1.22383,
2012-03-16, 03:39:05,VALID,916.655,VALID,0,VALID,96.8403,VALID,0,VALID,18.0443,VALID,124,VALID,0.913672,
2012-03-16, 03:40:05,VALID,916.633,VALID,0,VALID,96.8784,VALID,0,VALID,18.0457,VALID,124,VALID,1.13281,
2012-03-16, 03:41:05,VALID,916.618,VALID,0,VALID,96.8936,VALID,0,VALID,18.0262,VALID,124,VALID,1.1082,
2012-03-16, 03:42:05,VALID,916.616,VALID,0,VALID,96.9317,VALID,0,VALID,18.0067,VALID,124,VALID,1.175,
2012-03-16, 03:43:05,VALID,916.554,VALID,0,VALID,96.9546,VALID,0,VALID,17.9663,VALID,124,VALID,0.858594,
2012-03-16, 03:44:05,VALID,916.557,VALID,0,VALID,97.0003,VALID,0,VALID,17.9663,VALID,124,VALID,1.08633,
2012-03-16, 03:45:05,VALID,916.532,VALID,0,VALID,97.0232,VALID,0,VALID,17.9872,VALID,124,VALID,0.769531,